Location: Altoona
(40.5167°N, 78.4000°W)
Time: 23:31:26
(UTC-04:00)

Daily predictions for brighter satellites

Satellite Brightness Start Highest point End
(mag) Time Altitude Azimuth Time Altitude Azimuth Time Altitude Azimuth
Cosmos 2026 Rocket 4.1 20:27:20 10° N 20:33:26 56° E 20:39:25 10° SSE
Cosmos 1707 Rocket 4.1 20:30:48 10° SSW 20:35:12 68° W 20:39:37 10° N
Cosmos 1455 3.5 20:32:27 10° SSW 20:36:05 45° W 20:39:43 10° N
Cosmos 1733 Rocket 3.6 20:35:06 10° N 20:39:20 41° ENE 20:43:33 10° SSE
FENGYUN 3A 4.4 20:34:30 10° S 20:39:44 56° W 20:45:00 10° NNW
USA 267 3.5 20:37:01 10° NE 20:43:34 78° NW 20:50:06 10° SW
Helios 1A 3.5 20:40:15 10° SE 20:44:15 42° ENE 20:48:16 10° N
Cosmos 1862 3.8 20:40:46 10° N 20:44:39 43° ENE 20:48:31 10° SSE
Cosmos 1862 Rocket 3.9 20:44:44 10° SSE 20:49:01 48° E 20:53:20 10° NNE
Cosmos 1634 Rocket 4.4 20:52:30 10° SSW 20:58:46 70° W 21:05:07 10° N
Cosmos 2263 Rocket 2.2 20:53:45 10° NNW 20:59:21 76° ENE 21:04:55 10° SSE
Spot 2 Rocket 4.1 20:57:26 10° S 21:02:26 60° WSW 21:07:29 10° NNW
Cosmos 968 Rocket 4.0 21:00:01 10° N 21:05:00 44° ENE 21:09:04 15° SE
USA 186 2.1 21:03:55 10° S 21:06:40 57° W 21:09:38 10° NNW
SAR-Lupe-4 3.5 21:03:14 10° SSE 21:06:48 70° ENE 21:10:23 10° N
Cosmos 1939 Rocket 3.2 21:03:23 12° SSE 21:07:00 48° ENE 21:10:51 10° N
Cosmos 1703 Rocket 4.4 21:06:20 12° SSE 21:09:48 30° E 21:13:39 10° NNE
Cosmos 2322 Rocket 3.1 21:05:14 10° SW 21:10:41 53° WNW 21:16:12 10° NNE
Atlas Centaur 2 3.4 21:08:26 10° WSW 21:14:18 36° S 21:19:23 17° ESE
USA 234 3.6 21:12:08 15° ESE 21:17:35 56° NE 21:23:56 10° NW
Cosmos 1825 3.3 21:14:02 10° NNW 21:17:40 44° W 21:21:17 10° SSW
Cosmos 2360 Rocket 2.1 21:12:41 10° SSW 21:18:17 71° ESE 21:23:57 10° NNE
SJ-11-01 4.2 21:15:14 11° SSE 21:19:40 75° ENE 21:24:20 10° N
COSMOS 2428 3.4 21:15:36 10° SSE 21:20:34 32° ESE 21:25:34 10° NE
Cosmos 1655 Rocket 4.2 21:14:53 10° N 21:21:17 77° W 21:27:35 10° S
Intercosmos 25 Rocket 4.3 21:18:16 10° SSW 21:21:26 47° WNW 21:25:37 10° N
Cosmos 2266 Rocket 4.4 21:16:24 10° N 21:22:28 47° ENE 21:27:06 18° SE
Envisat 3.0 21:17:32 10° SSE 21:22:37 89° W 21:27:43 10° NNW
Meteor 1-29 2.9 21:19:39 10° NNE 21:23:09 89° ESE 21:26:35 10° SSW
SAR-Lupe-1 4.1 21:21:02 13° S 21:24:07 81° WSW 21:27:44 10° NNW
CZ-4B DEB 2.6 21:22:33 17° S 21:24:44 80° W 21:27:47 10° NNW
Lacrosse 4 Rocket 3.5 21:22:35 10° NW 21:26:12 26° WSW 21:29:51 10° SSW
Cosmos 1408 4.4 21:23:01 10° NNW 21:26:18 31° W 21:29:33 10° SSW
Helios 1B rocket 2.7 21:22:47 10° N 21:26:53 69° WNW 21:30:57 10° SSW
Cosmos 1867 3.6 21:21:48 10° NNW 21:27:17 77° ENE 21:30:53 22° SE
H-2A R/B 3.7 21:28:32 14° E 21:30:05 16° ENE 21:33:04 10° NNE
Milstar 3 4.1 21:23:31 10° WSW 21:30:09 26° SSW 21:33:52 17° SSE
ATLAS 5 CENTAUR R/B 2.5 21:24:52 10° NW 21:30:57 86° SW 21:35:40 20° SSE
Cosmos 2221 Rocket 4.0 21:32:02 24° SE 21:34:10 41° E 21:38:20 10° NNE
SEDSat Delta rocket 4.5 21:31:26 10° WSW 21:35:54 30° S 21:37:59 24° SSE
Cosmos 2322 3.6 21:30:17 10° SSW 21:36:00 84° ESE 21:41:44 10° NNE
Meteor 1-14 Rocket 4.3 21:31:27 10° N 21:37:05 60° ENE 21:40:44 23° SSE
ARGOS 4.0 21:37:29 24° ESE 21:39:43 34° ENE 21:44:31 10° N
Cosmos 1606 4.5 21:42:03 17° ENE 21:42:03 17° ENE 21:43:44 10° NE
SL-16 R/B 4.2 21:36:36 10° WSW 21:41:37 31° WNW 21:46:39 10° N
ERS-1 Rocket 2.9 21:42:01 25° SSE 21:44:56 71° ENE 21:49:57 10° N
SeaSat 1 3.7 21:44:57 21° E 21:46:48 27° NE 21:50:55 10° N
Resurs 01 Rocket 4.3 21:46:57 10° SW 21:49:40 16° W 21:52:25 10° NW
H-2A R/B 4.1 21:53:54 14° ENE 21:54:05 15° ENE 21:56:26 10° NNE
Cosmos 2237 Rocket 3.7 21:58:36 19° E 21:58:36 19° E 22:01:15 10° NE
Cosmos 2333 4.2 21:52:37 10° S 21:58:13 60° ESE 22:03:53 10° NNE
NOSS 3-1 (C) 3.6 21:54:38 17° S 21:58:46 44° ESE 22:04:40 10° NE
YAOGAN 6 2.9 21:58:12 34° SSW 21:59:33 61° W 22:03:08 10° NNW
Cosmos 2333 Rocket 2.9 22:00:04 31° ESE 22:00:04 31° ESE 22:05:02 10° NE
Cosmos 1908 Rocket 4.1 21:56:09 10° NNW 22:00:24 56° W 22:02:59 22° SSW
Cosmos 1844 Rocket 2.9 21:55:25 10° NNW 22:00:53 53° ENE 22:02:43 37° ESE
SPOT 5 3.0 21:59:59 40° ESE 22:01:12 51° ENE 22:05:40 10° N
SL-08 RB Rocket 4.3 22:01:17 37° E 22:01:59 39° ENE 22:06:14 10° N
Cosmos 2278 Rocket 3.6 21:57:25 10° N 22:02:00 24° NE 22:03:38 21° E
USA 229 DEB 3.9 21:58:07 10° SW 22:04:55 74° NW 22:11:54 10° NNE
USA 229 3.9 21:58:13 10° SW 22:05:02 75° NW 22:12:00 10° NNE
MetOp-A 4.0 22:04:25 36° SSE 22:06:41 80° ENE 22:12:03 10° N
Sich 1 Rocket 4.4 22:02:29 10° NNW 22:06:49 49° W 22:09:37 21° SSW
OAO 3 Rocket 4.4 22:03:12 10° WSW 22:07:17 27° SSW 22:07:40 27° SSW
CZ-4C R/B 3.8 22:01:42 10° NNW 22:08:06 35° NE 22:11:50 23° E
Cosmos 1782 Rocket 3.7 22:10:42 10° NNW 22:15:04 69° W 22:16:24 42° SSW
NOSS 3-1 (A) 3.6 22:15:18 42° ESE 22:15:26 42° ESE 22:21:19 10° NE
SPOT 1/Viking Rocket 3.8 22:16:34 46° ESE 22:17:35 54° ENE 22:22:39 10° N
Cosmos 1777 Rocket 4.0 22:15:01 10° NNW 22:20:18 80° WSW 22:21:49 48° S
Cosmos 2219 Rocket 2.1 22:20:01 46° SSE 22:21:22 60° ESE 22:26:54 10° NNE
Okean 1-7 3.5 22:21:00 31° SSW 22:22:58 61° W 22:27:21 10° N
USA 245 4.0 22:21:27 48° SSE 22:23:03 84° ENE 22:27:54 10° N
S3M 4.3 22:28:26 44° ESE 22:28:57 45° E 22:34:48 10° NNE
Landsat 7 4.3 22:29:27 44° ENE 22:29:27 44° ENE 22:33:55 10° N
Okean 2 Rocket 3.3 22:25:39 10° NNW 22:30:09 67° W 22:30:55 55° SSW
Cosmos 1782 2.8 22:30:21 80° WNW 22:30:21 80° WNW 22:34:18 10° N
TRAILBLAZER 4.4 22:30:04 74° SSW 22:30:27 86° ESE 22:35:02 10° NNE
Cosmos 2084 4.2 22:34:13 10° NNW 22:37:17 39° NNE 22:37:17 39° NNE
Cosmos 1633 3.9 22:36:59 10° N 22:39:16 35° NNE 22:39:16 35° NNE
Nimbus 7 Rocket 4.3 22:35:04 10° NNE 22:41:03 89° WNW 22:43:21 41° SSW
Terra 2.5 22:45:02 42° NE 22:45:02 42° NE 22:49:02 10° N
Cosmos 1346 Rocket 4.2 22:46:34 30° NNE 22:46:34 30° NNE 22:48:44 10° NNE
Meteor 1-27 Rocket 3.6 22:46:37 65° E 22:46:40 65° E 22:52:12 10° NNE
USA 234 3.8 22:59:28 40° SSW 23:00:39 44° SW 23:06:51 10° WNW
CARTOSAT-1 4.4 23:02:55 44° NNE 23:02:55 44° NNE 23:06:02 10° N
Cosmos 1745 Rocket 3.9 22:56:05 10° N 23:02:25 71° E 23:02:51 69° ESE
Atlas Centaur 2 3.7 22:56:46 10° WSW 23:02:01 33° SSW 23:02:01 33° SSW
Cosmos 2151 Rocket 4.2 23:00:08 10° NNW 23:03:58 54° WNW 23:03:58 54° WNW
COSMOS 2428 4.1 22:59:32 10° SW 23:04:44 36° WNW 23:09:59 10° N
H-2A R/B 2.3 23:09:10 59° W 23:09:10 59° W 23:13:54 10° NNW
Cosmos 1980 3.6 23:13:33 82° WNW 23:13:33 82° WNW 23:19:13 10° NNE
Meteor 1-11 Rocket 3.6 23:08:15 10° NNW 23:13:39 80° WNW 23:13:39 80° WNW
Cosmos 1844 4.2 23:10:56 10° NW 23:16:21 48° WSW 23:16:28 48° WSW
NOSS 0 Rocket 4.0 23:16:17 55° SW 23:17:37 72° WNW 23:23:47 10° NNE
Timation 1 Rocket 4.4 23:12:12 10° NNW 23:18:00 70° NE 23:18:00 70° NE
Okean 1 Rocket 4.3 23:15:02 10° N 23:17:55 39° N 23:17:55 39° N
SL-16 R/B 3.6 23:22:16 28° NE 23:22:16 28° NE 23:25:07 10° NE
DMSP B5D2-2 4.3 23:18:00 10° N 23:23:06 66° WNW 23:23:06 66° WNW
SeaSat 1 3.4 23:24:45 40° W 23:24:45 40° W 23:28:49 10° NW
H-2A R/B 3.5 23:31:01 36° NW 23:31:01 36° NW 23:33:52 10° NNW
Cosmos 1937 Rocket 4.1 23:27:44 10° NNW 23:31:47 51° N 23:31:47 51° N
Cosmos 2237 Rocket 2.7 23:40:20 53° WNW 23:40:42 54° WNW 23:46:18 10° NNE
Cosmos 2333 Rocket 3.5 23:41:57 28° WSW 23:44:09 38° WNW 23:49:31 10° N
Cosmos 1844 Rocket 4.5 23:40:18 10° NW 23:44:19 21° W 23:44:25 21° WSW
Cosmos 2278 Rocket 2.9 23:40:54 10° NNW 23:45:29 46° WNW 23:45:29 46° WNW
Cosmos 2315 Rocket 4.2 23:51:45 61° NNE 23:51:45 61° NNE 23:56:54 10° N
